OBJECT D, 54817

Orbit data source: Space-Track

You're viewing an Uncataloged Satellite

Recently launched and/or uncataloged satellites may have evolving metadata. Metadata may include but not limited to: Owner, Maufacturer, Bus, Motor, and Mission.

OBJECT D, 54817 is a satellite owned by VVKO VKS (CIS) in LEO that was launched on Wed, 30 Nov 2022 UTC launched from the Plesetsk Missile And Space Complex (PKMTR). Unknown objects in Earth's orbit typically refer to objects detected orbiting the Earth but have not yet been identified or cataloged. These objects could be anything from previously untracked satellites, spent rocket stages, debris from satellite collisions, or even natural meteoroids temporarily captured by Earth's gravity.

Loading next visibility...
Identifier
54817, 2022-163D
Orbit
LEO
Country
Flag of CISCIS
Related business
Manufacturer
TSSKBP/ARSLO
Mission
Spacecraft
Bus & Motor
UNK, Unknown motor
Mass
~10 kg wet, ~10 kg dry
Launch date (UTC)
2022-11-30 (4 years ago)
Launch vehicle
Unknown
Launch site
Plesetsk Missile And Space Complex (PKMTR)
Object type
Unknown
Shape & HBR
Box, 0.1 m
Radar Cross Section
0.080 m², Medium (>0.1 m² and < 1m²)

Expand to show TLE details & history
Last TLE update: 5 days ago

TLE from 5 days ago
0 OBJECT D
1 54817U 22163D   26168.59719526 -.00000064  00000-0  79126-5 0  9997
2 54817  67.1394 102.5189 0002956  88.3599 271.7825 13.97477984177542
Epoch: 2026-06-17T14:19Z
TLE epoch observation values (Epoch: 2026-06-17T14:19:57.670Z)
Latitude
0.00003°
Longitude
-18.32397°
Altitude
904.584 km
Speed
7.4 km/s
True Right ascension
06h 50m 04s
True Declination
0° 00' 00"
Sunlit
Object was in daylight at epoch
Visualization orbit readout
Latitude
Unknown
Longitude
Unknown
Altitude
Unknown
Speed
Unknown
Apparent Right ascension
Unknown
Apparent Declination
Unknown
Sunlit
N/A
Visualization observer readout
Local Sidereal Time
21:35:29
Azimuth
Unknown
Elevation
Unknown
Doppler factor
Unknown
Orbital elements
Apogee altitude
903.043 km
Perigee altitude
898.74 km
Semi-major axis
7,279.028 km
Eccentricity
0.0003
Inclination
67.1394°
RAAN
102.5189°
Arg. of periapsis
88.3599°
True anomaly
271.74864°
Mean anomaly
271.7825°
Eccentric anomaly
271.76557°
Mean motion
3.49489 °/min
Orbital period
103.01 mins
BSTAR
0.0000079126
Loading maneuver chart data...
Computing Atmospheric mass density...
Loading historical data...
Loading historical data...
Loading historical data...
Loading historical data...
Loading historical data...
Loading historical data...
Loading historical data...
Other satellites on launch #163 in the year 2022 (2022-11-30 UTC)

Documentation

Showing up to 5 results
|